EDT,Max TemperatureF,Mean TemperatureF,Min TemperatureF,Max Dew PointF,MeanDew PointF,Min DewpointF,Max Humidity, Mean Humidity, Min Humidity, Max Sea Level PressureIn, Mean Sea Level PressureIn, Min Sea Level PressureIn, Max VisibilityMiles, Mean VisibilityMiles, Min VisibilityMiles, Max Wind SpeedMPH, Mean Wind SpeedMPH, Max Gust SpeedMPH,PrecipitationIn, CloudCover, Events, WindDirDegrees
2013-5-1,71,64,57,56,54,52,88,73,54,30.22,30.18,30.11,10,10,10,16,10,21,0.00,7,Rain,38
2013-5-2,69,64,60,61,58,55,94,82,60,30.23,30.19,30.17,10,9,2,16,13,22,0.05,7,Rain,49
2013-5-3,66,60,55,57,54,48,90,78,62,30.16,30.12,30.07,10,9,2,16,12,28,0.02,7,Rain,57
2013-5-4,64,57,51,57,51,41,94,78,57,30.07,29.99,29.95,10,9,2,20,14,28,0.05,7,Rain,61
2013-5-5,66,60,55,62,57,50,94,87,68,29.94,29.85,29.81,10,9,2,23,13,29,0.26,8,Rain,89
2013-5-6,72,64,57,63,57,38,100,89,29,29.91,29.84,29.81,10,6,0,13,5,17,0.08,5,Fog-Rain,169
2013-5-7,70,60,51,54,50,45,86,71,48,29.97,29.93,29.88,10,10,6,13,4,17,0.05,4,Rain,224
2013-5-8,79,64,50,56,51,48,89,62,34,30.02,29.98,29.94,10,10,10,13,5,20,0.00,2,,215
2013-5-9,84,70,57,57,52,46,82,53,27,30.09,30.04,29.99,10,10,10,10,5,,0.00,1,Rain,248
2013-5-10,87,73,60,61,55,51,90,53,30,30.08,30.04,29.98,10,10,10,16,7,22,0.00,1,,196
2013-5-11,83,73,64,63,59,55,88,61,41,30.00,29.92,29.85,10,10,10,15,9,18,0.00,2,,214
2013-5-12,79,72,62,60,47,35,78,44,21,30.01,29.91,29.84,10,10,10,14,8,23,0.00,2,,283
2013-5-13,72,62,52,39,32,26,56,35,19,30.17,30.09,30.02,10,10,10,15,8,22,0.00,0,,342
2013-5-14,75,60,45,43,33,29,60,37,19,30.27,30.19,30.14,10,10,10,12,7,,0.00,0,,119
2013-5-15,90,74,57,57,49,42,63,46,29,30.13,30.06,29.96,10,10,4,13,9,21,0.00,0,,211
2013-5-16,84,75,66,62,58,53,81,57,42,30.05,30.00,29.96,10,10,10,12,7,,0.00,1,,219
2013-5-17,88,76,64,62,58,51,84,56,29,30.10,30.06,30.02,10,10,10,10,6,18,0.00,1,,213
2013-5-18,84,74,65,68,63,58,100,73,43,30.14,30.10,30.07,10,10,2,17,5,22,0.23,6,Rain-Thunderstorm,153
2013-5-19,77,72,66,70,67,57,100,91,68,30.13,30.09,30.03,10,7,0,18,5,,2.58,6,Rain-Thunderstorm,153
2013-5-20,81,75,68,73,68,62,100,86,54,30.11,30.07,30.03,10,8,0,22,5,28,0.22,6,Fog-Rain-Thunderstorm,186
2013-5-21,85,75,66,70,67,63,100,87,55,30.07,30.03,29.97,10,7,1,14,4,,0.00,6,Rain,173
2013-5-22,86,76,67,70,66,59,100,84,42,30.04,29.99,29.90,10,6,0,10,4,20,0.00,5,Fog-Rain,172
2013-5-23,85,76,67,68,65,60,100,77,44,29.96,29.91,29.84,10,10,5,17,4,25,0.21,4,Rain-Thunderstorm,195
2013-5-24,80,72,60,60,44,21,74,36,12,30.18,30.00,29.85,10,10,10,21,12,28,0.00,0,,321
2013-5-25,77,62,48,46,36,26,77,41,15,30.32,30.22,30.17,10,10,8,17,6,,0.00,0,,360
2013-5-26,77,66,55,50,43,38,67,46,26,30.27,30.21,30.16,10,10,7,9,3,,0.00,1,Rain,39
2013-5-27,84,70,55,59,53,48,83,57,33,30.26,30.20,30.14,10,10,10,10,4,,0.00,0,,111
2013-5-28,86,74,63,62,59,57,87,61,40,30.25,30.20,30.16,10,10,10,14,4,20,0.00,1,,174
2013-5-29,86,72,60,63,58,52,94,62,32,30.26,30.21,30.17,10,10,10,9,4,,0.00,1,,148
2013-5-30,88,74,59,65,61,54,93,65,31,30.28,30.23,30.16,10,10,8,13,4,,0.00,2,,120
2013-5-31,89,78,66,75,67,58,100,85,35,30.24,30.20,30.11,10,6,0,13,3,18,0.04,5,Fog-Rain,96